www.pogodaiklimat.ru

Архив погоды в Ижевске (Удмуртия, Россия)

Время
(UTC), дата
00 10.05
03 10.05
06 10.05
09 10.05
12 10.05
15 10.05
18 10.05
21 10.05
00 11.05
03 11.05
06 11.05
09 11.05
12 11.05
15 11.05
18 11.05
21 11.05
00 12.05
03 12.05
06 12.05
09 12.05
12 12.05
15 12.05
18 12.05
21 12.05
00 13.05
03 13.05
06 13.05
09 13.05
12 13.05
15 13.05
18 13.05
21 13.05
00 14.05
03 14.05
06 14.05
09 14.05
12 14.05
15 14.05
18 14.05
21 14.05
00 15.05
03 15.05
06 15.05
09 15.05
12 15.05
15 15.05
18 15.05
21 15.05
00 16.05
03 16.05
06 16.05
09 16.05
12 16.05
15 16.05
18 16.05
Ветер
(напр.,м/с)
Видим. Явления Облачность Т
(С)
Тd
(С)
f
(%)
Тe
(С)
Тes
(С)
Комфортность P
(гПа)
Po
(гПа)
Тmin
(С)
Tmax
(С)
R
(мм)
R24
(мм)
S
(см)
В 3-4
{4}
10 км 10/0
[As op]
+11.1 -2.7 38 +10 +10 тепло 1009.2 989.9
СВ 3-6
{6}
10 км 10/5 1000 м
[Sc As op]
+11.7 -2.1 38 +10 +11 по сезону 1006.9 987.6 +9.7
В 4-8
{8}
10 км 10/0
[Ac trans Cs]
+16.8 -3.0 26 +16 +21 тепло 1004.0 985.2
В 9-13
{15}
10 км 10/0
[Ac As]
+20.5 -3.6 19 +20 +20 тепло 1002.4 983.8
ЮВ 7-10
{15}
4000 м слаб. ливневой дождь 10/10 600 м
[Cb calv]
+14.1 +6.0 58 +12 +12 прохладно 1005.2 986.8
В 3-7
{11}
10 км в посл. час ливневой дождь 10/10 600 м
[Cb cap]
+12.0 +6.4 69 +11 +11 по сезону 1005.0 985.9 +20.8 0.7
В 3-6
{7}
4000 м слаб. ливневой дождь 10/10 600 м
[Cb cap]
+10.3 +8.7 90 +8 +8 по сезону 1004.3 985.1
В 2-5
{7}
10 км {ливн. дождь} 10/8 600 м
[Cb cap Ac und]
+10.4 +8.2 86 +9 +9 по сезону 1003.5 984.3
СВ 1-4
{6}
10 км {ливн. дождь} 10/0
[Ac lent Cs]
+9.0 +6.5 84 +8 +8 тепло 1002.9 983.6
В 2-5
{5}
10 км 10/0
[Ac lent]
+10.5 +6.8 78 +9 +10 по сезону 1002.4 983.2 +8.7 0.5
В 3-6
{8}
10 км 9/9 600 м
[Sc]
+13.8 +8.2 69 +13 +14 тепло 1002.4 983.4
В 3-5
{7}
10 км 10/10 600 м
[Cb cap]
+13.2 +9.3 77 +12 +12 по сезону 1003.5 984.5
Ю 3-7
{11}
4000 м слаб. ливневой дождь 10/10 600 м
[Cb cap]
+9.3 +7.4 88 +7 +7 очень
холодно
1007.3 987.9
ЮЗ 2-5
{11}
10 км {ливн. дождь} 8/0
[Ac cast Cs]
+8.1 +3.6 73 +6 +7 холодно 1010.2 990.8 +14.5 2
ЮВ 2-3
{4}
10 км {ливн. дождь} 3/0
[Ac trans]
+4.0 +2.0 87 +1 +1 холодно 1011.6 991.9
ЮВ 2-3
{5}
10 км ясно +5.7 +0.7 70 +3 +3 прохладно 1012.7 992.9
В 2-4
{4}
10 км 1/0
[Ci fib]
+4.8 -0.8 67 +2 +2 по сезону 1013.1 993.3
В 5-7
{7}
10 км 3/0
[Cs]
+6.4 +0.5 66 +2 +4 холодно 1013.0 993.3 +2.3
ЮВ 5-8
{9}
10 км ясно +12.3 +2.4 51 +10 +16 по сезону 1011.6 992.4
ЮВ 6-9
{11}
10 км 9/9 600 м
[Sc]
+15.7 +0.3 35 +14 +15 по сезону 1010.0 991.1
В 7-11
{11}
10 км 9/9 600 м
[Sc]
+15.2 -1.0 33 +14 +14 по сезону 1008.7 989.7
ЮВ 2-2
{11}
10 км 9/9 600 м
[Cb cap]
+12.6 +3.1 52 +12 +12 по сезону 1007.9 988.8 +16.2
В 3-4
{8}
10 км 8/3 1000 м
[Sc Ci fib]
+7.9 +2.4 68 +5 +5 прохладно 1006.9 987.5
В 1-3
{4}
10 км 9/4 1000 м
[Sc As trans]
+8.7 +3.5 70 +8 +8 по сезону 1005.0 985.7
ЮВ 3-5
{4}
10 км 10/10 1000 м
[Sc]
+7.8 +4.8 81 +5 +5 по сезону 1003.6 984.2
ЮВ 4-7
{6}
10 км 9/6 1000 м
[Sc Cc]
+7.6 +3.5 75 +4 +5 прохладно 1002.7 983.3 +6.9
ЮВ 3-7
{8}
10 км 8/8 1000 м
[Cu med, cong]
+9.2 +4.8 74 +7 +9 прохладно 1001.2 982.0
ЮВ 3-6
{8}
10 км 10/10 600 м
[Cb cap]
+10.7 +2.0 55 +9 +9 прохладно 1000.8 981.7
Ю 2-3
{6}
10 км 8/8 1000 м
[Cb cap]
+11.3 +1.8 52 +10 +12 прохладно 999.7 980.6
З 1-3
{6}
10 км 9/9 1000 м
[Sc]
+11.3 +2.3 54 +11 +12 по сезону 999.5 980.4 +13.5
Ю 1-2
{3}
10 км 8/8 1000 м
[Sc]
+8.5 +2.9 68 +8 +8 по сезону 999.8 980.6
Ю 1-1
{2}
10 км 8/0
[Ac trans]
+5.7 +2.9 82 +5 +5 по сезону 999.7 980.3
Ю 1-2
{3}
10 км 10/0
[Ac und]
+7.2 +4.5 83 +6 +6 по сезону 999.9 980.6
ЮЗ 1-3
{6}
10 км 9/9 1000 м
[Sc]
+7.7 +6.0 89 +7 +7 по сезону 1000.2 980.9 +5.4
З 2-6
{7}
10 км 8/8 1000 м
[Cu med, cong]
+13.5 +5.0 56 +13 +15 тепло 999.5 980.6
З 3-8
{9}
10 км 9/9 600 м
[Cb cap]
+15.9 +1.7 38 +16 +17 тепло 999.2 980.5
ЮЗ 4-9
{10}
10 км 8/8 1000 м
[Cb cap]
+18.2 -0.3 29 +18 +19 тепло 998.6 980.1
З 3-6
{11}
10 км 10/8 600 м
[Cb cap Ci fib]
+16.5 +0.1 33 +16 +16 тепло 999.1 980.2 +18.5
ЮВ 3-3
{7}
10 км {ливн. дождь} 6/0
[Ac lent Ci ing]
+8.3 +4.8 79 +6 +6 прохладно 1001.0 981.8
Ю 2-3
{4}
10 км 8/0
[Ac trans Ci fib]
+9.0 +3.1 67 +8 +8 по сезону 1000.8 981.6
ЮЗ 1-3
{5}
10 км 10/0
[Ac trans Cs]
+8.2 +3.3 71 +8 +8 тепло 1000.3 981.1
З 2-4
{5}
10 км 10/0
[Ac trans Cs]
+11.1 +4.7 65 +10 +12 по сезону 1000.9 981.9 +7.8 0.5
ЮЗ 2-5
{7}
10 км 8/3 1000 м
[Cu hum Ac lent Cs]
+16.0 +4.2 45 +16 +21 тепло 1000.5 981.7
ЮЗ 3-6
{8}
10 км {ливн. дождь} 9/9 1000 м
[Cb cap]
+16.2 +1.7 38 +16 +17 тепло 1000.0 981.2
С 1-2
{9}
10 км в посл. час ливневой дождь 9/9 1000 м
[Cb cap]
+14.8 +2.6 44 +15 +16 по сезону 1000.1 981.3
Ю 2-3
{7}
10 км 8/3 1000 м
[Cb cap Ac lent]
+14.7 +4.2 49 +15 +15 тепло 999.6 980.8 +17.1 2
Ю 2-3
{4}
10 км 6/0
[Ac lent Ci fib]
+11.3 +3.8 60 +10 +10 по сезону 999.9 980.9
Ю 1-2
{3}
10 км 10/6 1000 м
[Sc Ac As]
+11.6 +4.6 62 +12 +12 тепло 999.2 980.2
ЮВ 2-3
{5}
10 км {ливн. дождь} 10/8 600 м
[Cb cap Ac und]
+10.2 +5.9 75 +9 +9 тепло 1001.4 982.2
штиль 0-1
{3}
10 км слаб. ливневой дождь 10/8 1000 м
[Cb cap Ac und]
+9.4 +7.6 89 +9 +9 по сезону 998.3 979.1 +9.4 1
С 1-3
{3}
10 км {ливн. дождь} 10/8 600 м
[Cb calv Ac trans]
+11.7 +7.7 76 +12 +13 тепло 997.3 978.3
штиль 0-2
{5}
10 км в посл. час ливневой дождь 10/10 600 м
[Cb cap]
+11.5 +9.8 89 +11 +11 по сезону 998.2 979.1
ЮЗ 2-3
{6}
10 км {ливн. дождь} 10/9 600 м
[Cb calv Ci fib]
+12.9 +9.0 77 +12 +13 по сезону 997.0 978.2
СЗ 2-4
{5}
10 км 10/10 600 м
[Cb calv]
+11.9 +6.6 70 +11 +11 по сезону 996.0 977.2 +13.1 4
ЮЗ 1-1
{4}
10 км 10/8 600 м
[Cb calv Ac trans]
+10.5 +8.4 87 +10 +10 по сезону 996.9 977.7
Местоположение метеостанции Ижевск (Удмуртия, Россия): широта 56.83 долгота 53.45 высота над уровнем моря 159 м.
В архиве по умолчанию представлена погода в Ижевске за последнюю неделю. Архивные данные за месяц целиком и за предыдущие месяцы, начиная с января 2011 года, Вы можете получить, выбрав интересующий диапазон дат из раскрывающегося списка и нажав кнопку "Найти!".
*Определитесь, кто Вы:
Внимание! Время в таблицах - всемирное. Для получения местного времени необходимо прибавить поправку, которая равна 4 ч.
Смотрите также архив погоды в соседних городах и на ближайших метеорологических станциях:
Партнеры нашего сайта:      
Пояснения к столбцам:
  • Ветер - указаны скорость ветра в м/с - средняя за 10 мин, порывы в срок и между сроками (в фигурных скобках) и направление, откуда дует ветер: С - северный,
  • СВ - северо-восточный, В - восточный, ЮВ - юго-восточный, Ю - южный, ЮЗ - юго-западный, З - западный, СЗ - северо-западный.
  • Видимость - горизонтальная дальность видимости в метрах или километрах. При видимости от 1 до 10 км при отсутствии осадков обычно наблюдается дымка, при ухудшении видимости до 1 км и менее - туман. В сухую погоду видимость может ухудшаться дымом, пылью или мглою.
  • Явления - указаны атмосферные явления, наблюдавшиеся в срок или в последний час перед сроком; фигурными скобками обозначены явления, наблюдавшиеся между сроками (за 1-3 часа до срока); квадратными скобками обозначены град или гололедные отложения с указанием их диаметра в мм.
  • Облачность - указаны через наклонную черту общая и нижняя облачность в баллах и высота нижней границы облаков в метрах; квадратными скобками обозначены формы облаков: Ci - перистые, Cs - перисто-слоистые, Cc - перисто-кучевые, Ac - высококучевые, As - высокослоистые, Sc - слоисто-кучевые, Ns - слоисто-дождевые, Cu - кучевые, Cb - кучево-дождевые. Подробнее классификацию облаков см. в Атласе облаков (PDF).
  • T - Температура воздуха - температура, измеренная на высоте 2 м над землей.
  • Td - Температура точки росы - температура, при понижении до которой содержащийся в воздухе водяной пар достигнет насыщения.
  • f - Относительная влажность воздуха - влажноcть воздуха, измеренная на высоте 2 м над землей.
  • Te - Эффективная температура - температура, которую ощущает одетый по сезону человек в тени. Характеристика душности погоды. При расчете учитывается влияние влажности воздуха и скорости ветра на теплоощущения человека.
  • Tes - Эффективная температура на солнце - температура, которую ощущает человек, с поправкой на солнечный нагрев. Характеристика знойности погоды. Зависит от высоты солнца над горизонтом, облачности и скорости ветра. Ночью, в пасмурную погоду, а также при ветре 12 м/с и более поправка равна нулю.
  • P - Атмосферное давление - приведенное к уровню моря атмосферное давление.
  • Po - Атмосферное давление - измеренное на уровне метеостанции атмосферное давление.
  • Tmin - Минимальная температура - минимум температуры воздуха на высоте 2 м над землей.
  • Tmax - Максимальная температура - максимум температуры воздуха на высоте 2 м над землей.
  • R - Количество осадков - Количество выпавших осадков за период времени, мм. При наведении курсора мыши на число - период времени, за который выпало указанное количество осадков.
  • R24 - Количество осадков - Количество выпавших осадков за 24 часа, мм.
  • S - Снежный покров - Высота снежного покрова, см. При наведении курсора мыши на число - состояние снежного покрова и степень покрытия местности в баллах.